Time,TemperatureF,DewpointF,PressureIn,WindDirection,WindDirectionDegrees,WindSpeedMPH,WindSpeedGustMPH,Humidity,HourlyPrecipIn,Conditions,Clouds,dailyrainin,SoftwareType,DateUTC
2013-05-30 00:01:00,73.9,66.6,30.07,South,169,0.0,7.0,78,0.00,,,0.00,Wunderground v.1.15,2013-05-30 04:01:00,
2013-05-30 00:02:00,73.9,66.6,30.07,SE,133,0.0,7.0,78,0.00,,,0.00,Wunderground v.1.15,2013-05-30 04:02:00,
2013-05-30 00:03:00,73.9,66.6,30.07,SSE,155,0.0,7.0,78,0.00,,,0.00,Wunderground v.1.15,2013-05-30 04:03:00,
2013-05-30 00:09:00,73.9,66.2,30.07,South,176,0.0,7.0,77,0.00,,,0.00,Wunderground v.1.15,2013-05-30 04:09:00,
2013-05-30 00:11:00,74.0,66.3,30.07,SSE,158,0.0,7.0,77,0.00,,,0.00,Wunderground v.1.15,2013-05-30 04:11:00,
2013-05-30 00:16:00,74.0,66.0,30.07,SSW,192,0.0,7.0,76,0.00,,,0.00,Wunderground v.1.15,2013-05-30 04:16:00,
2013-05-30 00:22:00,74.0,66.0,30.07,SSE,160,0.0,7.0,76,0.00,,,0.00,Wunderground v.1.15,2013-05-30 04:22:00,
2013-05-30 00:27:00,74.2,65.8,30.07,South,169,0.0,7.0,75,0.00,,,0.00,Wunderground v.1.15,2013-05-30 04:27:00,
2013-05-30 00:33:00,74.2,65.8,30.07,South,174,0.0,7.0,75,0.00,,,0.00,Wunderground v.1.15,2013-05-30 04:33:00,
2013-05-30 00:38:00,74.2,65.4,30.07,SSE,161,0.0,7.0,74,0.00,,,0.00,Wunderground v.1.15,2013-05-30 04:38:00,
2013-05-30 00:43:00,74.2,65.4,30.07,SSE,150,0.0,7.0,74,0.00,,,0.00,Wunderground v.1.15,2013-05-30 04:43:00,
2013-05-30 00:48:00,74.4,65.2,30.07,South,171,0.0,7.0,73,0.00,,,0.00,Wunderground v.1.15,2013-05-30 04:48:00,
2013-05-30 00:53:00,74.4,65.2,30.07,South,188,0.0,7.0,73,0.00,,,0.00,Wunderground v.1.15,2013-05-30 04:53:00,
2013-05-30 00:58:00,74.4,65.2,30.07,SSW,202,0.0,7.0,73,0.00,,,0.00,Wunderground v.1.15,2013-05-30 04:58:00,
2013-05-30 01:04:00,74.4,64.8,30.08,South,175,0.0,4.0,72,0.00,,,0.00,Wunderground v.1.15,2013-05-30 05:04:00,
2013-05-30 01:09:00,74.4,64.8,30.08,South,175,0.0,4.0,72,0.00,,,0.00,Wunderground v.1.15,2013-05-30 05:09:00,
2013-05-30 01:14:00,74.6,65.0,30.08,South,175,0.0,4.0,72,0.00,,,0.00,Wunderground v.1.15,2013-05-30 05:14:00,
2013-05-30 01:19:00,74.4,64.8,30.08,SW,215,0.0,4.0,72,0.00,,,0.00,Wunderground v.1.15,2013-05-30 05:19:00,
2013-05-30 01:24:00,74.4,64.8,30.08,SSE,151,0.0,4.0,72,0.00,,,0.00,Wunderground v.1.15,2013-05-30 05:24:00,
2013-05-30 01:29:00,74.4,64.4,30.09,SSE,151,0.0,4.0,71,0.00,,,0.00,Wunderground v.1.15,2013-05-30 05:29:00,
2013-05-30 01:35:00,74.4,64.8,30.09,SSE,151,0.0,4.0,72,0.00,,,0.00,Wunderground v.1.15,2013-05-30 05:35:00,
2013-05-30 01:40:00,74.4,64.8,30.09,SSE,154,0.0,4.0,72,0.00,,,0.00,Wunderground v.1.15,2013-05-30 05:40:00,
2013-05-30 01:45:00,74.4,64.8,30.09,SSE,164,0.0,4.0,72,0.00,,,0.00,Wunderground v.1.15,2013-05-30 05:45:00,
2013-05-30 01:50:00,74.2,64.6,30.09,SSE,164,0.0,4.0,72,0.00,,,0.00,Wunderground v.1.15,2013-05-30 05:50:00,
2013-05-30 01:55:00,74.2,64.6,30.09,SE,133,0.0,4.0,72,0.00,,,0.00,Wunderground v.1.15,2013-05-30 05:55:00,
2013-05-30 02:01:00,74.0,64.4,30.09,SE,133,0.0,0.0,72,0.00,,,0.00,Wunderground v.1.15,2013-05-30 06:01:00,
2013-05-30 02:06:00,74.0,64.4,30.09,SSE,151,0.0,0.0,72,0.00,,,0.00,Wunderground v.1.15,2013-05-30 06:06:00,
2013-05-30 02:11:00,73.9,64.3,30.09,South,171,0.0,0.0,72,0.00,,,0.00,Wunderground v.1.15,2013-05-30 06:11:00,
2013-05-30 02:16:00,73.9,64.7,30.09,South,171,0.0,0.0,73,0.00,,,0.00,Wunderground v.1.15,2013-05-30 06:16:00,
2013-05-30 02:21:00,73.7,64.5,30.09,South,171,0.0,0.0,73,0.00,,,0.00,Wunderground v.1.15,2013-05-30 06:21:00,
2013-05-30 02:26:00,73.7,64.5,30.09,SSE,158,0.0,0.0,73,0.00,,,0.00,Wunderground v.1.15,2013-05-30 06:26:00,
2013-05-30 02:31:00,73.5,64.3,30.09,SSE,158,0.0,0.0,73,0.00,,,0.00,Wunderground v.1.15,2013-05-30 06:31:00,
2013-05-30 02:37:00,73.3,64.1,30.09,SSE,154,0.0,0.0,73,0.00,,,0.00,Wunderground v.1.15,2013-05-30 06:37:00,
2013-05-30 02:42:00,73.3,64.1,30.09,SSE,154,0.0,0.0,73,0.00,,,0.00,Wunderground v.1.15,2013-05-30 06:42:00,
2013-05-30 02:47:00,73.2,64.4,30.09,SSE,154,0.0,0.0,74,0.00,,,0.00,Wunderground v.1.15,2013-05-30 06:47:00,
2013-05-30 02:52:00,73.2,64.4,30.09,SSE,154,0.0,1.0,74,0.00,,,0.00,Wunderground v.1.15,2013-05-30 06:52:00,
2013-05-30 02:57:00,73.0,63.8,30.09,SSE,154,0.0,1.0,73,0.00,,,0.00,Wunderground v.1.15,2013-05-30 06:57:00,
2013-05-30 03:03:00,72.8,63.6,30.09,SE,141,0.0,4.0,73,0.00,,,0.00,Wunderground v.1.15,2013-05-30 07:03:00,
2013-05-30 03:08:00,72.7,63.5,30.09,SE,141,0.0,4.0,73,0.00,,,0.00,Wunderground v.1.15,2013-05-30 07:08:00,
2013-05-30 03:13:00,72.5,63.7,30.09,SE,141,0.0,4.0,74,0.00,,,0.00,Wunderground v.1.15,2013-05-30 07:13:00,
2013-05-30 03:19:00,72.3,63.5,30.09,SE,141,0.0,4.0,74,0.00,,,0.00,Wunderground v.1.15,2013-05-30 07:19:00,
2013-05-30 03:24:00,72.3,63.5,30.09,SE,141,0.0,4.0,74,0.00,,,0.00,Wunderground v.1.15,2013-05-30 07:24:00,
2013-05-30 03:30:00,72.0,63.3,30.09,SE,141,0.0,4.0,74,0.00,,,0.00,Wunderground v.1.15,2013-05-30 07:30:00,
2013-05-30 03:35:00,71.8,63.4,30.09,SE,141,0.0,4.0,75,0.00,,,0.00,Wunderground v.1.15,2013-05-30 07:35:00,
2013-05-30 03:40:00,71.6,63.3,30.09,SE,141,0.0,4.0,75,0.00,,,0.00,Wunderground v.1.15,2013-05-30 07:40:00,
2013-05-30 03:46:00,71.5,63.5,30.09,SE,141,0.0,0.0,76,0.00,,,0.00,Wunderground v.1.15,2013-05-30 07:46:00,
2013-05-30 03:51:00,71.3,63.3,30.09,SE,141,0.0,0.0,76,0.00,,,0.00,Wunderground v.1.15,2013-05-30 07:51:00,
2013-05-30 03:57:00,70.9,63.0,30.09,SE,141,0.0,0.0,76,0.00,,,0.00,Wunderground v.1.15,2013-05-30 07:57:00,
2013-05-30 04:03:00,70.8,63.2,30.10,SE,141,0.0,0.0,77,0.00,,,0.00,Wunderground v.1.15,2013-05-30 08:03:00,
2013-05-30 04:09:00,70.4,62.8,30.10,SE,141,0.0,0.0,77,0.00,,,0.00,Wunderground v.1.15,2013-05-30 08:09:00,
2013-05-30 04:14:00,70.3,63.1,30.10,SE,141,0.0,0.0,78,0.00,,,0.00,Wunderground v.1.15,2013-05-30 08:14:00,
2013-05-30 04:19:00,70.1,63.3,30.10,SE,141,0.0,0.0,79,0.00,,,0.00,Wunderground v.1.15,2013-05-30 08:19:00,
2013-05-30 04:24:00,69.9,63.1,30.10,SE,141,0.0,0.0,79,0.00,,,0.00,Wunderground v.1.15,2013-05-30 08:24:00,
2013-05-30 04:29:00,69.6,62.8,30.10,SE,141,0.0,0.0,79,0.00,,,0.00,Wunderground v.1.15,2013-05-30 08:29:00,
2013-05-30 04:34:00,69.4,63.0,30.10,SE,141,0.0,0.0,80,0.00,,,0.00,Wunderground v.1.15,2013-05-30 08:34:00,
2013-05-30 04:39:00,69.3,62.9,30.10,SE,141,0.0,0.0,80,0.00,,,0.00,Wunderground v.1.15,2013-05-30 08:39:00,
2013-05-30 04:44:00,69.1,62.7,30.11,SE,141,0.0,0.0,80,0.00,,,0.00,Wunderground v.1.15,2013-05-30 08:44:00,
2013-05-30 04:49:00,68.9,62.5,30.11,SE,141,0.0,0.0,80,0.00,,,0.00,Wunderground v.1.15,2013-05-30 08:49:00,
2013-05-30 04:54:00,68.6,62.5,30.11,SE,141,0.0,0.0,81,0.00,,,0.00,Wunderground v.1.15,2013-05-30 08:54:00,
2013-05-30 05:00:00,68.4,62.3,30.12,SE,141,0.0,0.0,81,0.00,,,0.00,Wunderground v.1.15,2013-05-30 09:00:00,
2013-05-30 05:06:00,68.3,62.6,30.12,SE,141,0.0,0.0,82,0.00,,,0.00,Wunderground v.1.15,2013-05-30 09:06:00,
2013-05-30 05:12:00,68.1,62.4,30.12,SE,141,0.0,0.0,82,0.00,,,0.00,Wunderground v.1.15,2013-05-30 09:12:00,
2013-05-30 05:18:00,67.9,62.5,30.12,SE,141,0.0,0.0,83,0.00,,,0.00,Wunderground v.1.15,2013-05-30 09:18:00,
2013-05-30 05:23:00,67.8,62.4,30.12,East,86,0.0,0.0,83,0.00,,,0.00,Wunderground v.1.15,2013-05-30 09:23:00,
2013-05-30 05:29:00,67.4,62.1,30.12,East,88,0.0,0.0,83,0.00,,,0.00,Wunderground v.1.15,2013-05-30 09:29:00,
2013-05-30 05:34:00,67.3,62.0,30.12,East,88,0.0,0.0,83,0.00,,,0.00,Wunderground v.1.15,2013-05-30 09:34:00,
2013-05-30 05:39:00,67.3,62.3,30.12,East,88,0.0,0.0,84,0.00,,,0.00,Wunderground v.1.15,2013-05-30 09:39:00,
2013-05-30 05:44:00,67.1,62.1,30.12,East,88,0.0,0.0,84,0.00,,,0.00,Wunderground v.1.15,2013-05-30 09:44:00,
2013-05-30 05:49:00,66.9,61.9,30.12,East,88,0.0,0.0,84,0.00,,,0.00,Wunderground v.1.15,2013-05-30 09:49:00,
2013-05-30 05:54:00,66.8,62.1,30.12,East,88,0.0,0.0,85,0.00,,,0.00,Wunderground v.1.15,2013-05-30 09:54:00,
2013-05-30 05:59:00,66.6,61.9,30.13,East,88,0.0,0.0,85,0.00,,,0.00,Wunderground v.1.15,2013-05-30 09:59:00,
2013-05-30 06:05:00,66.4,61.8,30.13,East,88,0.0,0.0,85,0.00,,,0.00,Wunderground v.1.15,2013-05-30 10:05:00,
2013-05-30 06:10:00,66.4,62.1,30.13,East,88,0.0,0.0,86,0.00,,,0.00,Wunderground v.1.15,2013-05-30 10:10:00,
2013-05-30 06:15:00,66.3,62.0,30.14,East,88,0.0,0.0,86,0.00,,,0.00,Wunderground v.1.15,2013-05-30 10:15:00,
2013-05-30 06:20:00,66.1,61.8,30.14,East,88,0.0,0.0,86,0.00,,,0.00,Wunderground v.1.15,2013-05-30 10:20:00,
2013-05-30 06:25:00,66.1,62.1,30.14,East,88,0.0,0.0,87,0.00,,,0.00,Wunderground v.1.15,2013-05-30 10:25:00,
2013-05-30 06:30:00,66.1,62.1,30.14,East,88,0.0,0.0,87,0.00,,,0.00,Wunderground v.1.15,2013-05-30 10:30:00,
2013-05-30 06:35:00,66.0,62.0,30.14,East,88,0.0,0.0,87,0.00,,,0.00,Wunderground v.1.15,2013-05-30 10:35:00,
2013-05-30 06:40:00,66.0,62.0,30.14,East,88,0.0,0.0,87,0.00,,,0.00,Wunderground v.1.15,2013-05-30 10:40:00,
2013-05-30 06:45:00,65.8,61.8,30.14,East,88,0.0,0.0,87,0.00,,,0.00,Wunderground v.1.15,2013-05-30 10:45:00,
2013-05-30 06:51:00,65.8,62.1,30.14,East,88,0.0,0.0,88,0.00,,,0.00,Wunderground v.1.15,2013-05-30 10:51:00,
2013-05-30 06:57:00,65.8,62.1,30.14,East,88,0.0,0.0,88,0.00,,,0.00,Wunderground v.1.15,2013-05-30 10:57:00,
2013-05-30 07:02:00,65.8,62.5,30.15,East,88,0.0,0.0,89,0.00,,,0.00,Wunderground v.1.15,2013-05-30 11:02:00,
2013-05-30 07:07:00,66.0,62.7,30.15,East,88,0.0,0.0,89,0.00,,,0.00,Wunderground v.1.15,2013-05-30 11:07:00,
2013-05-30 07:12:00,66.0,63.0,30.15,East,88,0.0,0.0,90,0.00,,,0.00,Wunderground v.1.15,2013-05-30 11:12:00,
2013-05-30 07:17:00,66.1,63.1,30.15,East,88,0.0,0.0,90,0.00,,,0.00,Wunderground v.1.15,2013-05-30 11:17:00,
2013-05-30 07:23:00,66.3,63.6,30.15,East,88,0.0,0.0,91,0.00,,,0.00,Wunderground v.1.15,2013-05-30 11:23:00,
2013-05-30 07:28:00,66.4,64.0,30.15,East,88,0.0,0.0,92,0.00,,,0.00,Wunderground v.1.15,2013-05-30 11:28:00,
2013-05-30 07:33:00,66.8,64.4,30.15,East,88,0.0,0.0,92,0.00,,,0.00,Wunderground v.1.15,2013-05-30 11:33:00,
2013-05-30 07:38:00,66.9,64.5,30.15,WSW,257,0.0,0.0,92,0.00,,,0.00,Wunderground v.1.15,2013-05-30 11:38:00,
2013-05-30 07:43:00,67.1,65.0,30.15,WSW,257,0.0,0.0,93,0.00,,,0.00,Wunderground v.1.15,2013-05-30 11:43:00,
2013-05-30 07:48:00,67.3,65.2,30.15,WSW,257,0.0,0.0,93,0.00,,,0.00,Wunderground v.1.15,2013-05-30 11:48:00,
2013-05-30 07:53:00,67.6,65.5,30.15,SW,227,0.0,0.0,93,0.00,,,0.00,Wunderground v.1.15,2013-05-30 11:53:00,
2013-05-30 07:58:00,67.8,65.7,30.15,SW,227,0.0,0.0,93,0.00,,,0.00,Wunderground v.1.15,2013-05-30 11:58:00,
2013-05-30 08:04:00,67.9,65.8,30.15,SW,230,0.0,4.0,93,0.00,,,0.00,Wunderground v.1.15,2013-05-30 12:04:00,
2013-05-30 08:09:00,68.1,66.0,30.15,SW,215,0.0,4.0,93,0.00,,,0.00,Wunderground v.1.15,2013-05-30 12:09:00,
2013-05-30 08:14:00,68.4,66.3,30.15,SW,215,0.0,4.0,93,0.00,,,0.00,Wunderground v.1.15,2013-05-30 12:14:00,
2013-05-30 08:19:00,68.6,66.5,30.15,SSW,199,0.0,4.0,93,0.00,,,0.00,Wunderground v.1.15,2013-05-30 12:19:00,
2013-05-30 08:24:00,68.9,66.5,30.15,SE,138,0.0,4.0,92,0.00,,,0.00,Wunderground v.1.15,2013-05-30 12:24:00,
2013-05-30 08:29:00,69.4,67.0,30.15,SSE,158,1.0,4.0,92,0.00,,,0.00,Wunderground v.1.15,2013-05-30 12:29:00,
2013-05-30 08:34:00,69.8,66.7,30.15,SSE,158,0.0,4.0,90,0.00,,,0.00,Wunderground v.1.15,2013-05-30 12:34:00,
2013-05-30 08:39:00,70.3,66.9,30.15,WNW,284,0.0,4.0,89,0.00,,,0.00,Wunderground v.1.15,2013-05-30 12:39:00,
2013-05-30 08:45:00,70.6,66.9,30.15,NW,308,1.0,4.0,88,0.00,,,0.00,Wunderground v.1.15,2013-05-30 12:45:00,
2013-05-30 08:50:00,70.9,66.8,30.15,WNW,287,1.0,4.0,87,0.00,,,0.00,Wunderground v.1.15,2013-05-30 12:50:00,
2013-05-30 08:55:00,71.3,67.2,30.15,West,278,0.0,4.0,87,0.00,,,0.00,Wunderground v.1.15,2013-05-30 12:55:00,
2013-05-30 09:00:00,71.6,67.2,30.15,West,270,0.0,0.0,86,0.00,,,0.00,Wunderground v.1.15,2013-05-30 13:00:00,
2013-05-30 09:06:00,71.8,67.0,30.15,SW,229,0.0,4.0,85,0.00,,,0.00,Wunderground v.1.15,2013-05-30 13:06:00,
2013-05-30 09:12:00,72.3,66.8,30.15,WNW,284,1.0,6.0,83,0.00,,,0.00,Wunderground v.1.15,2013-05-30 13:12:00,
2013-05-30 09:17:00,72.7,67.2,30.15,NW,322,1.0,6.0,83,0.00,,,0.00,Wunderground v.1.15,2013-05-30 13:17:00,
2013-05-30 09:22:00,73.0,66.8,30.15,SSE,160,0.0,4.0,81,0.00,,,0.00,Wunderground v.1.15,2013-05-30 13:22:00,
2013-05-30 09:27:00,73.9,67.0,30.15,SSE,151,0.0,4.0,79,0.00,,,0.00,Wunderground v.1.15,2013-05-30 13:27:00,
2013-05-30 09:33:00,74.9,66.8,30.15,South,188,1.0,4.0,76,0.00,,,0.00,Wunderground v.1.15,2013-05-30 13:33:00,
2013-05-30 09:38:00,75.6,67.1,30.15,WSW,254,1.0,4.0,75,0.00,,,0.00,Wunderground v.1.15,2013-05-30 13:38:00,
2013-05-30 09:43:00,76.3,67.4,30.15,WNW,288,1.0,4.0,74,0.00,,,0.00,Wunderground v.1.15,2013-05-30 13:43:00,
2013-05-30 09:48:00,76.7,67.0,30.15,West,264,1.0,4.0,72,0.00,,,0.00,Wunderground v.1.15,2013-05-30 13:48:00,
2013-05-30 09:53:00,77.4,67.7,30.15,WNW,284,1.0,4.0,72,0.00,,,0.00,Wunderground v.1.15,2013-05-30 13:53:00,
2013-05-30 09:58:00,77.9,67.3,30.15,West,274,2.0,4.0,70,0.00,,,0.00,Wunderground v.1.15,2013-05-30 13:58:00,
2013-05-30 10:03:00,78.5,67.5,30.15,SW,236,2.0,7.0,69,0.00,,,0.00,Wunderground v.1.15,2013-05-30 14:03:00,
2013-05-30 10:09:00,79.0,68.0,30.15,SW,236,1.0,7.0,69,0.00,,,0.00,Wunderground v.1.15,2013-05-30 14:09:00,
2013-05-30 10:14:00,79.4,67.5,30.15,South,178,1.0,7.0,67,0.00,,,0.00,Wunderground v.1.15,2013-05-30 14:14:00,
2013-05-30 10:19:00,79.9,67.5,30.15,South,172,1.0,7.0,66,0.00,,,0.00,Wunderground v.1.15,2013-05-30 14:19:00,
2013-05-30 10:24:00,80.1,67.7,30.15,SSE,157,1.0,7.0,66,0.00,,,0.00,Wunderground v.1.15,2013-05-30 14:24:00,
2013-05-30 10:30:00,80.7,68.3,30.15,West,263,1.0,1.0,66,0.00,,,0.00,Wunderground v.1.15,2013-05-30 14:30:00,
2013-05-30 10:35:00,81.1,68.7,30.15,WSW,253,1.0,7.0,66,0.00,,,0.00,Wunderground v.1.15,2013-05-30 14:35:00,
2013-05-30 10:40:00,81.6,67.8,30.15,WSW,241,1.0,7.0,63,0.00,,,0.00,Wunderground v.1.15,2013-05-30 14:40:00,
2013-05-30 10:46:00,81.8,68.0,30.15,West,278,1.0,7.0,63,0.00,,,0.00,Wunderground v.1.15,2013-05-30 14:46:00,
2013-05-30 10:51:00,82.6,67.8,30.15,WSW,258,2.0,7.0,61,0.00,,,0.00,Wunderground v.1.15,2013-05-30 14:51:00,
2013-05-30 10:56:00,83.0,67.2,30.15,SSW,192,2.0,7.0,59,0.00,,,0.00,Wunderground v.1.15,2013-05-30 14:56:00,
2013-05-30 11:02:00,83.6,67.3,30.15,West,280,2.0,2.0,58,0.00,,,0.00,Wunderground v.1.15,2013-05-30 15:02:00,
2013-05-30 11:08:00,83.4,68.5,30.15,WNW,292,1.0,6.0,61,0.00,,,0.00,Wunderground v.1.15,2013-05-30 15:08:00,
2013-05-30 11:13:00,83.8,67.4,30.15,WNW,292,1.0,6.0,58,0.00,,,0.00,Wunderground v.1.15,2013-05-30 15:13:00,
2013-05-30 11:18:00,84.3,68.9,30.15,SW,234,1.0,6.0,60,0.00,,,0.00,Wunderground v.1.15,2013-05-30 15:18:00,
2013-05-30 11:23:00,84.3,67.9,30.15,SW,229,1.0,6.0,58,0.00,,,0.00,Wunderground v.1.15,2013-05-30 15:23:00,
2013-05-30 11:28:00,84.3,67.4,30.15,South,175,1.0,6.0,57,0.00,,,0.00,Wunderground v.1.15,2013-05-30 15:28:00,
2013-05-30 11:34:00,84.7,67.3,30.15,WSW,246,1.0,6.0,56,0.00,,,0.00,Wunderground v.1.15,2013-05-30 15:34:00,
2013-05-30 11:40:00,85.5,65.9,30.15,ENE,71,1.0,4.0,52,0.00,,,0.00,Wunderground v.1.15,2013-05-30 15:40:00,
2013-05-30 11:48:00,85.1,68.7,30.15,SE,127,0.0,4.0,58,0.00,,,0.00,Wunderground v.1.15,2013-05-30 15:48:00,
2013-05-30 11:53:00,85.7,68.7,30.15,South,172,1.0,6.0,57,0.00,,,0.00,Wunderground v.1.15,2013-05-30 15:53:00,
2013-05-30 11:58:00,86.3,66.6,30.15,SW,217,1.0,4.0,52,0.00,,,0.00,Wunderground v.1.15,2013-05-30 15:58:00,
2013-05-30 12:04:00,86.7,69.1,30.14,SW,230,1.0,6.0,56,0.00,,,0.00,Wunderground v.1.15,2013-05-30 16:04:00,
2013-05-30 12:09:00,86.7,68.6,30.14,SSE,147,1.0,6.0,55,0.00,,,0.00,Wunderground v.1.15,2013-05-30 16:09:00,
2013-05-30 12:15:00,87.2,66.3,30.14,SSE,162,2.0,6.0,50,0.00,,,0.00,Wunderground v.1.15,2013-05-30 16:15:00,
2013-05-30 12:20:00,87.0,67.8,30.14,WSW,251,1.0,1.0,53,0.00,,,0.00,Wunderground v.1.15,2013-05-30 16:20:00,
2013-05-30 12:25:00,87.0,67.2,30.14,SE,136,1.0,6.0,52,0.00,,,0.00,Wunderground v.1.15,2013-05-30 16:25:00,
2013-05-30 12:30:00,87.0,69.4,30.14,SW,217,1.0,1.0,56,0.00,,,0.00,Wunderground v.1.15,2013-05-30 16:30:00,
2013-05-30 12:36:00,87.4,65.9,30.14,SSE,160,2.0,6.0,49,0.00,,,0.00,Wunderground v.1.15,2013-05-30 16:36:00,
2013-05-30 12:42:00,86.7,67.5,30.14,SSE,160,1.0,6.0,53,0.00,,,0.00,Wunderground v.1.15,2013-05-30 16:42:00,
2013-05-30 12:48:00,87.8,68.5,30.14,WNW,289,1.0,7.0,53,0.00,,,0.00,Wunderground v.1.15,2013-05-30 16:48:00,
2013-05-30 12:53:00,88.2,66.0,30.14,SW,229,2.0,7.0,48,0.00,,,0.00,Wunderground v.1.15,2013-05-30 16:53:00,
2013-05-30 12:58:00,88.4,67.4,30.14,SSE,165,2.0,7.0,50,0.00,,,0.00,Wunderground v.1.15,2013-05-30 16:58:00,
2013-05-30 13:04:00,88.0,64.6,30.13,SSE,151,2.0,9.0,46,0.00,,,0.00,Wunderground v.1.15,2013-05-30 17:04:00,
2013-05-30 13:09:00,88.0,65.2,30.13,SSE,154,2.0,9.0,47,0.00,,,0.00,Wunderground v.1.15,2013-05-30 17:09:00,
2013-05-30 13:14:00,88.4,65.6,30.13,SSE,162,2.0,9.0,47,0.00,,,0.00,Wunderground v.1.15,2013-05-30 17:14:00,
2013-05-30 13:20:00,88.6,64.5,30.13,ESE,123,2.0,9.0,45,0.00,,,0.00,Wunderground v.1.15,2013-05-30 17:20:00,
2013-05-30 13:25:00,88.8,66.0,30.13,South,175,2.0,9.0,47,0.00,,,0.00,Wunderground v.1.15,2013-05-30 17:25:00,
2013-05-30 13:30:00,88.8,66.6,30.13,SSW,213,2.0,9.0,48,0.00,,,0.00,Wunderground v.1.15,2013-05-30 17:30:00,
2013-05-30 13:35:00,88.8,65.4,30.13,SSE,162,2.0,9.0,46,0.00,,,0.00,Wunderground v.1.15,2013-05-30 17:35:00,
2013-05-30 13:41:00,88.6,66.4,30.13,South,181,2.0,9.0,48,0.00,,,0.00,Wunderground v.1.15,2013-05-30 17:41:00,
2013-05-30 13:46:00,89.0,64.3,30.12,SSE,147,3.0,9.0,44,0.00,,,0.00,Wunderground v.1.15,2013-05-30 17:46:00,
2013-05-30 13:51:00,89.0,65.5,30.12,SSW,206,2.0,9.0,46,0.00,,,0.00,Wunderground v.1.15,2013-05-30 17:51:00,
2013-05-30 13:57:00,89.0,64.9,30.12,NW,322,1.0,9.0,45,0.00,,,0.00,Wunderground v.1.15,2013-05-30 17:57:00,
2013-05-30 14:02:00,89.3,67.6,30.12,West,275,2.0,10.0,49,0.00,,,0.00,Wunderground v.1.15,2013-05-30 18:02:00,
2013-05-30 14:07:00,89.3,65.8,30.12,ESE,113,3.0,10.0,46,0.00,,,0.00,Wunderground v.1.15,2013-05-30 18:07:00,
2013-05-30 14:13:00,89.3,65.8,30.12,SE,133,4.0,4.0,46,0.00,,,0.00,Wunderground v.1.15,2013-05-30 18:13:00,
2013-05-30 14:18:00,89.7,67.4,30.12,SSE,158,2.0,10.0,48,0.00,,,0.00,Wunderground v.1.15,2013-05-30 18:18:00,
2013-05-30 14:23:00,89.3,66.4,30.12,SSE,155,2.0,10.0,47,0.00,,,0.00,Wunderground v.1.15,2013-05-30 18:23:00,
2013-05-30 14:29:00,89.0,64.9,30.11,SSW,202,2.0,10.0,45,0.00,,,0.00,Wunderground v.1.15,2013-05-30 18:29:00,
2013-05-30 14:34:00,89.0,65.5,30.11,SSE,155,2.0,6.0,46,0.00,,,0.00,Wunderground v.1.15,2013-05-30 18:34:00,
2013-05-30 14:39:00,89.5,66.0,30.11,SSW,198,3.0,9.0,46,0.00,,,0.00,Wunderground v.1.15,2013-05-30 18:39:00,
2013-05-30 14:47:00,89.0,67.4,30.11,South,182,2.0,2.0,49,0.00,,,0.00,Wunderground v.1.15,2013-05-30 18:47:00,
2013-05-30 14:53:00,89.3,65.2,30.11,SSE,150,2.0,9.0,45,0.00,,,0.00,Wunderground v.1.15,2013-05-30 18:53:00,
2013-05-30 14:58:00,89.5,66.6,30.11,SSW,193,2.0,9.0,47,0.00,,,0.00,Wunderground v.1.15,2013-05-30 18:58:00,
2013-05-30 15:04:00,89.5,67.2,30.10,SE,141,2.0,4.0,48,0.00,,,0.00,Wunderground v.1.15,2013-05-30 19:04:00,
2013-05-30 15:09:00,89.3,66.4,30.10,SW,233,1.0,8.0,47,0.00,,,0.00,Wunderground v.1.15,2013-05-30 19:09:00,
2013-05-30 15:14:00,89.0,67.9,30.10,South,182,2.0,8.0,50,0.00,,,0.00,Wunderground v.1.15,2013-05-30 19:14:00,
2013-05-30 15:19:00,89.3,68.2,30.10,SSW,196,2.0,8.0,50,0.00,,,0.00,Wunderground v.1.15,2013-05-30 19:19:00,
2013-05-30 15:27:00,89.3,67.6,30.10,SSE,168,2.0,8.0,49,0.00,,,0.00,Wunderground v.1.15,2013-05-30 19:27:00,
2013-05-30 15:32:00,89.0,66.2,30.10,SSW,193,2.0,8.0,47,0.00,,,0.00,Wunderground v.1.15,2013-05-30 19:32:00,
2013-05-30 15:37:00,89.0,66.2,30.10,South,184,2.0,2.0,47,0.00,,,0.00,Wunderground v.1.15,2013-05-30 19:37:00,
2013-05-30 15:43:00,89.3,67.0,30.10,NW,318,3.0,10.0,48,0.00,,,0.00,Wunderground v.1.15,2013-05-30 19:43:00,
2013-05-30 15:48:00,89.0,65.5,30.10,SSW,196,3.0,10.0,46,0.00,,,0.00,Wunderground v.1.15,2013-05-30 19:48:00,
2013-05-30 15:53:00,89.3,66.4,30.10,SE,131,2.0,4.0,47,0.00,,,0.00,Wunderground v.1.15,2013-05-30 19:53:00,
2013-05-30 15:59:00,89.0,68.5,30.09,SSW,193,2.0,10.0,51,0.00,,,0.00,Wunderground v.1.15,2013-05-30 19:59:00,
2013-05-30 16:07:00,89.0,65.5,30.09,SSW,196,2.0,8.0,46,0.00,,,0.00,Wunderground v.1.15,2013-05-30 20:07:00,
2013-05-30 16:12:00,88.8,66.0,30.09,WNW,285,3.0,8.0,47,0.00,,,0.00,Wunderground v.1.15,2013-05-30 20:12:00,
2013-05-30 16:18:00,88.6,67.0,30.10,SSW,202,2.0,2.0,49,0.00,,,0.00,Wunderground v.1.15,2013-05-30 20:18:00,
2013-05-30 16:23:00,88.6,67.6,30.10,NW,322,2.0,8.0,50,0.00,,,0.00,Wunderground v.1.15,2013-05-30 20:23:00,
2013-05-30 16:29:00,88.8,68.3,30.10,South,182,1.0,8.0,51,0.00,,,0.00,Wunderground v.1.15,2013-05-30 20:29:00,
2013-05-30 16:34:00,88.8,66.6,30.10,SSE,151,1.0,8.0,48,0.00,,,0.00,Wunderground v.1.15,2013-05-30 20:34:00,
2013-05-30 16:39:00,88.6,66.4,30.10,SSW,208,2.0,8.0,48,0.00,,,0.00,Wunderground v.1.15,2013-05-30 20:39:00,
2013-05-30 16:45:00,88.4,67.4,30.10,SSE,165,2.0,9.0,50,0.00,,,0.00,Wunderground v.1.15,2013-05-30 20:45:00,
2013-05-30 16:51:00,88.4,66.2,30.10,South,184,2.0,9.0,48,0.00,,,0.00,Wunderground v.1.15,2013-05-30 20:51:00,
2013-05-30 16:56:00,88.2,68.4,30.10,South,176,3.0,9.0,52,0.00,,,0.00,Wunderground v.1.15,2013-05-30 20:56:00,
2013-05-30 17:01:00,88.4,68.0,30.10,South,188,2.0,9.0,51,0.00,,,0.00,Wunderground v.1.15,2013-05-30 21:01:00,
2013-05-30 17:06:00,88.4,67.4,30.10,SSW,193,2.0,9.0,50,0.00,,,0.00,Wunderground v.1.15,2013-05-30 21:06:00,
2013-05-30 17:11:00,88.0,68.7,30.10,SSE,168,2.0,9.0,53,0.00,,,0.00,Wunderground v.1.15,2013-05-30 21:11:00,
2013-05-30 17:17:00,88.0,68.7,30.10,SSW,205,1.0,9.0,53,0.00,,,0.00,Wunderground v.1.15,2013-05-30 21:17:00,
2013-05-30 17:22:00,88.2,68.4,30.10,SSW,212,1.0,9.0,52,0.00,,,0.00,Wunderground v.1.15,2013-05-30 21:22:00,
2013-05-30 17:27:00,88.0,69.3,30.10,SW,227,1.0,9.0,54,0.00,,,0.00,Wunderground v.1.15,2013-05-30 21:27:00,
2013-05-30 17:33:00,87.0,68.9,30.09,South,185,1.0,8.0,55,0.00,,,0.00,Wunderground v.1.15,2013-05-30 21:33:00,
2013-05-30 17:38:00,85.7,68.2,30.09,SW,224,1.0,8.0,56,0.00,,,0.00,Wunderground v.1.15,2013-05-30 21:38:00,
2013-05-30 17:44:00,85.1,68.2,30.09,SSE,165,1.0,8.0,57,0.00,,,0.00,Wunderground v.1.15,2013-05-30 21:44:00,
2013-05-30 17:50:00,84.7,67.8,30.09,SW,217,1.0,8.0,57,0.00,,,0.00,Wunderground v.1.15,2013-05-30 21:50:00,
2013-05-30 17:55:00,84.5,67.6,30.09,South,186,1.0,8.0,57,0.00,,,0.00,Wunderground v.1.15,2013-05-30 21:55:00,
2013-05-30 18:00:00,84.5,67.6,30.09,South,188,2.0,2.0,57,0.00,,,0.00,Wunderground v.1.15,2013-05-30 22:00:00,
2013-05-30 18:07:00,84.0,68.1,30.09,South,181,1.0,1.0,59,0.00,,,0.00,Wunderground v.1.15,2013-05-30 22:07:00,
2013-05-30 18:13:00,83.8,68.9,30.09,South,169,1.0,8.0,61,0.00,,,0.00,Wunderground v.1.15,2013-05-30 22:13:00,
2013-05-30 18:18:00,83.4,68.5,30.09,SSE,167,1.0,8.0,61,0.00,,,0.00,Wunderground v.1.15,2013-05-30 22:18:00,
2013-05-30 18:23:00,83.2,68.8,30.09,SSE,168,1.0,8.0,62,0.00,,,0.00,Wunderground v.1.15,2013-05-30 22:23:00,
2013-05-30 18:29:00,83.2,68.8,30.09,SSE,168,0.0,8.0,62,0.00,,,0.00,Wunderground v.1.15,2013-05-30 22:29:00,
2013-05-30 18:34:00,83.2,68.8,30.09,SSE,168,0.0,8.0,62,0.00,,,0.00,Wunderground v.1.15,2013-05-30 22:34:00,
2013-05-30 18:39:00,83.4,69.0,30.09,SE,144,1.0,1.0,62,0.00,,,0.00,Wunderground v.1.15,2013-05-30 22:39:00,
2013-05-30 18:44:00,83.2,68.8,30.09,South,184,1.0,8.0,62,0.00,,,0.00,Wunderground v.1.15,2013-05-30 22:44:00,
2013-05-30 18:49:00,83.6,68.7,30.09,SSW,206,1.0,1.0,61,0.00,,,0.00,Wunderground v.1.15,2013-05-30 22:49:00,
2013-05-30 18:55:00,83.8,68.9,30.09,South,172,1.0,6.0,61,0.00,,,0.00,Wunderground v.1.15,2013-05-30 22:55:00,
2013-05-30 19:00:00,84.0,69.1,30.09,SE,127,1.0,1.0,61,0.00,,,0.00,Wunderground v.1.15,2013-05-30 23:00:00,
2013-05-30 19:05:00,83.8,68.9,30.09,South,169,1.0,7.0,61,0.00,,,0.00,Wunderground v.1.15,2013-05-30 23:05:00,
2013-05-30 19:10:00,83.8,68.9,30.09,SSW,195,0.0,7.0,61,0.00,,,0.00,Wunderground v.1.15,2013-05-30 23:10:00,
2013-05-30 19:15:00,83.6,69.2,30.09,SSW,195,0.0,7.0,62,0.00,,,0.00,Wunderground v.1.15,2013-05-30 23:15:00,
2013-05-30 19:20:00,83.6,68.7,30.09,South,185,1.0,1.0,61,0.00,,,0.00,Wunderground v.1.15,2013-05-30 23:20:00,
2013-05-30 19:25:00,83.6,69.2,30.09,SE,143,1.0,7.0,62,0.00,,,0.00,Wunderground v.1.15,2013-05-30 23:25:00,
2013-05-30 19:32:00,83.2,68.3,30.09,SSE,160,0.0,6.0,61,0.00,,,0.00,Wunderground v.1.15,2013-05-30 23:32:00,
2013-05-30 19:38:00,82.8,68.9,30.09,SSE,160,0.0,6.0,63,0.00,,,0.00,Wunderground v.1.15,2013-05-30 23:38:00,
2013-05-30 19:43:00,82.4,69.0,30.09,SSE,160,0.0,6.0,64,0.00,,,0.00,Wunderground v.1.15,2013-05-30 23:43:00,
2013-05-30 19:48:00,82.2,68.3,30.09,SE,141,0.0,6.0,63,0.00,,,0.00,Wunderground v.1.15,2013-05-30 23:48:00,
2013-05-30 19:53:00,82.2,68.3,30.09,SE,141,0.0,6.0,63,0.00,,,0.00,Wunderground v.1.15,2013-05-30 23:53:00,
2013-05-30 19:58:00,82.0,68.6,30.09,SE,141,0.0,6.0,64,0.00,,,0.00,Wunderground v.1.15,2013-05-30 23:58:00,
2013-05-30 20:04:00,81.4,68.5,30.09,SE,141,0.0,4.0,65,0.00,,,0.00,Wunderground v.1.15,2013-05-31 00:04:00,
2013-05-30 20:09:00,81.1,68.7,30.09,SE,141,0.0,4.0,66,0.00,,,0.00,Wunderground v.1.15,2013-05-31 00:09:00,
2013-05-30 20:14:00,80.5,68.1,30.09,SSW,200,0.0,4.0,66,0.00,,,0.00,Wunderground v.1.15,2013-05-31 00:14:00,
2013-05-30 20:19:00,80.3,67.9,30.09,SSW,200,0.0,4.0,66,0.00,,,0.00,Wunderground v.1.15,2013-05-31 00:19:00,
2013-05-30 20:24:00,79.9,68.0,30.09,SSW,200,0.0,4.0,67,0.00,,,0.00,Wunderground v.1.15,2013-05-31 00:24:00,
2013-05-30 20:29:00,79.8,67.9,30.09,SSW,200,0.0,4.0,67,0.00,,,0.00,Wunderground v.1.15,2013-05-31 00:29:00,
2013-05-30 20:34:00,79.4,67.9,30.09,SSW,200,0.0,4.0,68,0.00,,,0.00,Wunderground v.1.15,2013-05-31 00:34:00,
2013-05-30 20:39:00,79.2,68.1,30.09,SSW,200,0.0,4.0,69,0.00,,,0.00,Wunderground v.1.15,2013-05-31 00:39:00,
2013-05-30 20:45:00,78.6,68.0,30.09,SSW,200,0.0,4.0,70,0.00,,,0.00,Wunderground v.1.15,2013-05-31 00:45:00,
2013-05-30 20:51:00,78.1,68.3,30.09,SSW,200,0.0,4.0,72,0.00,,,0.00,Wunderground v.1.15,2013-05-31 00:51:00,
2013-05-30 20:56:00,77.6,68.3,30.09,SSW,200,0.0,4.0,73,0.00,,,0.00,Wunderground v.1.15,2013-05-31 00:56:00,
2013-05-30 21:02:00,77.0,68.1,30.08,SSW,200,0.0,0.0,74,0.00,,,0.00,Wunderground v.1.15,2013-05-31 01:02:00,
2013-05-30 21:07:00,76.7,67.8,30.08,SSW,200,0.0,0.0,74,0.00,,,0.00,Wunderground v.1.15,2013-05-31 01:07:00,
2013-05-30 21:12:00,76.5,67.6,30.08,SSW,200,0.0,0.0,74,0.00,,,0.00,Wunderground v.1.15,2013-05-31 01:12:00,
2013-05-30 21:17:00,76.5,67.6,30.09,SSW,200,0.0,0.0,74,0.00,,,0.00,Wunderground v.1.15,2013-05-31 01:17:00,
2013-05-30 21:23:00,76.7,67.8,30.09,SSW,200,0.0,0.0,74,0.00,,,0.00,Wunderground v.1.15,2013-05-31 01:23:00,
2013-05-30 21:28:00,76.3,67.4,30.09,SSW,200,0.0,0.0,74,0.00,,,0.00,Wunderground v.1.15,2013-05-31 01:28:00,
2013-05-30 21:33:00,76.0,67.1,30.09,SSW,200,0.0,0.0,74,0.00,,,0.00,Wunderground v.1.15,2013-05-31 01:33:00,
2013-05-30 21:39:00,75.6,67.1,30.09,SSW,200,0.0,0.0,75,0.00,,,0.00,Wunderground v.1.15,2013-05-31 01:39:00,
2013-05-30 21:44:00,75.3,67.2,30.10,SSW,200,0.0,0.0,76,0.00,,,0.00,Wunderground v.1.15,2013-05-31 01:44:00,
2013-05-30 21:49:00,75.1,67.4,30.10,SSW,200,0.0,0.0,77,0.00,,,0.00,Wunderground v.1.15,2013-05-31 01:49:00,
2013-05-30 21:55:00,74.7,67.4,30.10,SSW,200,0.0,0.0,78,0.00,,,0.00,Wunderground v.1.15,2013-05-31 01:55:00,
2013-05-30 22:01:00,74.6,67.3,30.10,SSW,200,0.0,0.0,78,0.00,,,0.00,Wunderground v.1.15,2013-05-31 02:01:00,
2013-05-30 22:06:00,74.4,67.1,30.10,SSW,200,0.0,0.0,78,0.00,,,0.00,Wunderground v.1.15,2013-05-31 02:06:00,
2013-05-30 22:11:00,74.2,66.9,30.10,SSW,200,0.0,0.0,78,0.00,,,0.00,Wunderground v.1.15,2013-05-31 02:11:00,
2013-05-30 22:16:00,74.2,67.3,30.10,SSW,200,0.0,0.0,79,0.00,,,0.00,Wunderground v.1.15,2013-05-31 02:16:00,
2013-05-30 22:21:00,74.0,67.1,30.10,SSW,200,0.0,0.0,79,0.00,,,0.00,Wunderground v.1.15,2013-05-31 02:21:00,
2013-05-30 22:26:00,73.9,67.0,30.10,SSW,200,0.0,0.0,79,0.00,,,0.00,Wunderground v.1.15,2013-05-31 02:26:00,
2013-05-30 22:32:00,73.5,66.9,30.10,SSW,200,0.0,0.0,80,0.00,,,0.00,Wunderground v.1.15,2013-05-31 02:32:00,
2013-05-30 22:38:00,73.3,66.8,30.10,SSW,200,0.0,0.0,80,0.00,,,0.00,Wunderground v.1.15,2013-05-31 02:38:00,
2013-05-30 22:43:00,73.2,66.7,30.10,SSW,200,0.0,0.0,80,0.00,,,0.00,Wunderground v.1.15,2013-05-31 02:43:00,
2013-05-30 22:48:00,73.3,66.8,30.11,SSW,200,0.0,0.0,80,0.00,,,0.00,Wunderground v.1.15,2013-05-31 02:48:00,
2013-05-30 22:53:00,73.3,66.8,30.11,SSW,200,0.0,0.0,80,0.00,,,0.00,Wunderground v.1.15,2013-05-31 02:53:00,
2013-05-30 22:58:00,73.3,66.8,30.11,SSW,200,0.0,0.0,80,0.00,,,0.00,Wunderground v.1.15,2013-05-31 02:58:00,
2013-05-30 23:04:00,73.2,66.3,30.10,SSW,200,0.0,0.0,79,0.00,,,0.00,Wunderground v.1.15,2013-05-31 03:04:00,
2013-05-30 23:09:00,73.2,66.3,30.10,SSW,200,0.0,0.0,79,0.00,,,0.00,Wunderground v.1.15,2013-05-31 03:09:00,
2013-05-30 23:14:00,73.2,66.3,30.10,SSW,200,0.0,0.0,79,0.00,,,0.00,Wunderground v.1.15,2013-05-31 03:14:00,
2013-05-30 23:19:00,73.2,66.3,30.10,SSW,200,0.0,0.0,79,0.00,,,0.00,Wunderground v.1.15,2013-05-31 03:19:00,
2013-05-30 23:24:00,73.2,66.3,30.10,SSW,200,0.0,0.0,79,0.00,,,0.00,Wunderground v.1.15,2013-05-31 03:24:00,
2013-05-30 23:30:00,73.2,66.3,30.10,SSW,200,0.0,0.0,79,0.00,,,0.00,Wunderground v.1.15,2013-05-31 03:30:00,
2013-05-30 23:35:00,73.2,66.3,30.10,SSW,200,0.0,0.0,79,0.00,,,0.00,Wunderground v.1.15,2013-05-31 03:35:00,
2013-05-30 23:40:00,73.2,66.3,30.10,SSW,200,0.0,0.0,79,0.00,,,0.00,Wunderground v.1.15,2013-05-31 03:40:00,
2013-05-30 23:45:00,73.2,66.3,30.10,SSW,200,0.0,0.0,79,0.00,,,0.00,Wunderground v.1.15,2013-05-31 03:45:00,
2013-05-30 23:50:00,73.2,66.3,30.10,SSW,200,0.0,0.0,79,0.00,,,0.00,Wunderground v.1.15,2013-05-31 03:50:00,
2013-05-30 23:55:00,73.0,66.1,30.10,SSW,200,0.0,0.0,79,0.00,,,0.00,Wunderground v.1.15,2013-05-31 03:55:00,